• Processing (Info)

  • MPEC 2023-J153 : 2023 JN2

    The following Minor Planet Electronic Circular may be linked-to from your own Web pages, but must not otherwise be redistributed electronically.

    A form allowing access to any MPEC is at the bottom of this page.


    Read MPEC 2023-J152 Read MPEC 2023-J154


    M.P.E.C. 2023-J153                                 Issued 2023 May 15, 11:05 UT
    
         The Minor Planet Electronic Circulars contain information on unusual
             minor planets, routine data on comets and natural satellites,
             and occasional editorial announcements.  They are published
        on behalf of Division F of the International Astronomical Union by the
              Minor Planet Center, Smithsonian Astrophysical Observatory,
                              Cambridge, MA 02138, U.S.A.
    			  
                 Prepared using the Tamkin Foundation Computer Network
    
                                  MPC@CFA.HARVARD.EDU
                URL https://www.minorplanetcenter.net/    ISSN 1523-6714
    
                                    2023 JN2                                 
    
    
    Observations:
         K23J02N*1C2023 05 14.37527516 40 41.420+11 07 16.70               VEJ153G96
         K23J02N 1C2023 05 14.38042616 40 15.000+11 24 02.60         18.50GVEJ153G96
         K23J02N KC2023 05 14.39755416 38 49.574+12 18 03.92         17.26GVEJ153I52
         K23J02N KC2023 05 14.39800416 38 47.407+12 19 25.97         17.81GVEJ153I52
         K23J02N KC2023 05 14.39845516 38 45.197+12 20 49.92         17.71GVEJ153I52
         K23J02N KC2023 05 14.39890816 38 43.015+12 22 12.47         17.65GVEJ153I52
         K23J02N KC2023 05 14.45240816 34 41.502+14 53 24.29         17.43GVEJ153I52
         K23J02N KC2023 05 14.45286416 34 39.594+14 54 35.64         17.11GVEJ153I52
         K23J02N KC2023 05 14.45331916 34 37.686+14 55 46.74         17.39GVEJ153I52
         K23J02N KC2023 05 14.45377216 34 35.800+14 56 57.55         17.46GVEJ153I52
         K23J02N KC2023 05 14.46566916 33 46.991+15 27 20.16         17.67GVEJ153I52
         K23J02N KC2023 05 14.46612016 33 45.169+15 28 28.38         17.43GVEJ153I52
         K23J02N KC2023 05 14.46657216 33 43.330+15 29 36.67         17.67GVEJ153I52
         K23J02N KC2023 05 14.46703916 33 41.483+15 30 46.98         17.46GVEJ153I52
         K23J02N KC2023 05 14.46892716 33 33.901+15 35 28.97         17.41GVEJ153I52
         K23J02N KC2023 05 14.46938816 33 32.069+15 36 37.62         17.72GVEJ153I52
         K23J02N KC2023 05 14.46984616 33 30.229+15 37 45.98         17.44GVEJ153I52
         K23J02N KC2023 05 14.47030216 33 28.465+15 38 53.34         17.12GVEJ153I52
         K23J02N 1C2023 05 14.89010 16 17 02.75 +26 30 15.7          18.5 GVEJ153C40
         K23J02N 1C2023 05 14.89245 16 16 58.20 +26 32 31.5          19.0 GVEJ153C40
         K23J02N 1C2023 05 14.89480 16 16 53.76 +26 34 46.0          18.4 GVEJ153C40
         K23J02N KC2023 05 14.94323 16 15 41.930+27 17 08.88         18.5 GXEJ153L38
         K23J02N KC2023 05 14.94639 16 15 36.492+27 19 54.41         18.8 GXEJ153L38
         K23J02N 1C2023 05 14.95728 16 15 00.63 +27 30 42.0          19.2 GVEJ153C40
         K23J02N 1C2023 05 14.96067 16 14 54.81 +27 33 32.0          19.1 GVEJ153C40
         K23J02N KB2023 05 14.96205 16 15 09.931+27 33 45.90         18.4 GXEJ153K74
         K23J02N 1C2023 05 14.96403 16 14 49.08 +27 36 19.8          19.0 GVEJ153C40
         K23J02N KB2023 05 14.96814 16 14 59.614+27 38 53.05         18.6 GXEJ153K74
         K23J02N KB2023 05 14.97499 16 14 48.113+27 44 33.68         19.0 GXEJ153K74
         K23J02N KB2023 05 14.98145 16 14 37.344+27 49 50.59         19.2 GXEJ153K74
         K23J02N 1C2023 05 14.98866 16 14 08.02 +27 56 16.9          19.2 GVEJ153C40
         K23J02N 1C2023 05 14.99204 16 14 02.52 +27 58 55.8          19.2 GVEJ153C40
         K23J02N 1C2023 05 14.99536 16 13 57.18 +28 01 32.4          18.9 GVEJ153C40
         K23J02N KB2023 05 14.99984 16 14 07.92 +28 03 57.8          20.1 GVEJ153L65
         K23J02N KB2023 05 15.01370 16 13 46.02 +28 14 43.8          22.0 GVEJ153L65
         K23J02N KB2023 05 15.02717 16 13 25.11 +28 24 56.0          21.3 GVEJ153L65
    
    Observer details:
    C40 Kuban State University Astrophysical Observatory.  Observers A. Ivanov, A.
        Barcov, V. Ivanov, V. Lysenko, N. Yakovenko, N. Ivanova, N. Gorbunov, G.
        Kurbatov, P. Shchukin, V. Roshchupko.  Measurer A. Ivanov.  0.51-m f/8
        reflector + CCD.
    G96 Mt. Lemmon Survey.  Observer D. Rankin.  Measurers E. J. Christensen, D.
        Fay, J. B. Fazekas, D. C. Fuls, A. R. Gibbs, A. D. Grauer, H. Groeller, J.
        K. Hogan, R. A. Kowalski, S. M. Larson, G. J. Leonard, D. Rankin, R. L.
        Seaman, A. Serrano, F. C. Shelly, K. W. Wierzchos.  1.5-m reflector + 10K
        CCD.
    I52 Steward Observatory, Mt. Lemmon Station.  Observer K. W. Wierzchos.
        Measurers E. J. Christensen, D. Fay, J. B. Fazekas, D. C. Fuls, A. R.
        Gibbs, A. D. Grauer, H. Groeller, J. K. Hogan, R. A. Kowalski, S. M.
        Larson, G. J. Leonard, D. Rankin, R. L. Seaman, A. Serrano, F. C. Shelly,
        K. W. Wierzchos.  1.0-m prime focus + CCD.
    K74 Muensterschwarzach Observatory, Schwarzach.  Observer C. Gerhard.  0.30-m
        f/3.75 reflector + CMO.
    L38 Gartensternwarte Schafsweide, Sehlde.  Observer A. Opitz.  0.35-m f/4.6
        Newton + CCD.
    L65 Bredenkamp Observatory, Bremen.  Observer H. Duin.  0.23-m f/6.3 reflector
        + CMO.
    
    Orbital elements:
    2023 JN2                                                 Earth MOID = 0.0028 AU
    Epoch 2023 Feb. 25.0 TT = JDT 2460000.5                 Veres                   
    M 343.81578              (2000.0)            P               Q                  
    n   0.61854704     Peri.  290.80871     -0.83559349     -0.32954108             
    a   1.3642299      Node   232.77911     +0.37828221     -0.92534255             
    e   0.3917681      Incl.   33.50146     -0.39835424     -0.18746692             
    P   1.59           H   27.08          G   0.15           U   7                  
    Residuals in seconds of arc
    230514 G96  0.0   0.1+    230514 I52  0.4-  0.1+    230514 C40  0.0   0.1+
    230514 G96 (0.5+  1.8-)   230514 I52  0.1+  0.3+    230514 K74  0.2+  0.2+
    230514 I52  0.1+  0.0     230514 I52  0.2-  0.2-    230514 C40  0.1+  0.1+
    230514 I52  0.4+  0.8-    230514 I52  0.0   0.3-    230514 K74  0.1+  0.5+
    230514 I52  0.2+  0.2+    230514 I52  0.3-  0.0     230514 K74  0.1+  0.2+
    230514 I52  0.4+  0.4-    230514 I52  0.5+  0.5-    230514 K74  0.1-  0.3-
    230514 I52  0.1+  0.3-    230514 C40  0.5+  0.0     230514 C40  0.3-  0.5+
    230514 I52  0.1+  0.2-    230514 C40  0.5-  0.5+    230514 C40  0.4-  0.4-
    230514 I52  0.0   0.3-    230514 C40  0.1-  0.3+    230514 C40  0.2-  0.2+
    230514 I52  0.1+  0.0     230514 L38  0.4-  0.4+    230514 L65  0.5-  0.5-
    230514 I52  0.0   0.5-    230514 L38  0.2-  0.3+    230515 L65  0.3+  0.2-
    230514 I52  0.1-  0.2-    230514 C40  0.0   0.5+    230515 L65  0.4+  0.3+
    
    Ephemeris:
    2023 JN2                 a,e,i = 1.36, 0.39, 34                  q = 0.8298
    Date    TT    R. A. (2000) Decl.     Delta      r    Elong.  Phase     V
    2023 04 15    03 35 37.4 -40 20 52   0.3307  0.8717    57.6   103.7    28.2
    ...
    2023 04 30    03 39 05.5 -43 06 34   0.1616  0.9367    60.0   111.4    27.2
    ...
    2023 05 08    03 35 18.1 -45 12 50   0.06901 0.9793    62.7   113.7    25.6
    ...
    2023 05 14    17 36 53.2 -27 01 27   0.0037711.0136   147.6    32.3    16.4
    2023 05 15    16 14 07.6 +28 08 09   0.01318 1.0195   131.7    47.7    19.5
    2023 05 16    16 00 34.2 +35 04 21   0.02461 1.0254   125.5    53.4    21.0
    ...
    2023 05 22    15 47 13.2 +40 34 17   0.09437 1.0614   119.2    56.4    24.1
    ...
    2023 05 30    15 44 55.7 +40 53 38   0.1873  1.1106   116.8    54.6    25.7
    ...
    2023 06 14    15 46 11.6 +39 14 46   0.3598  1.2039   113.2    50.8    27.1
    
    M. P. C. Staff               (C) Copyright 2023 MPC           M.P.E.C. 2023-J153
    


    Read MPEC 2023-J152 Read MPEC 2023-J154


    MPEC number:

    Enter an MPEC number in one of the following forms:

    • 1997-B01 (the full form)
    • J97B01 (the packed version of the full form)
    • B01 (the abbreviated form)